| time (UTC) | temp F | wind direction | speed MPH | gust MPH | rain 1hr in | rain 24hr in | rain mn in | humidity % | barometer mb |
| 20260509205010 | 60 | 310 | 1.0 | 4.0 | 0.00 | 0.01 | 0.01 | 70 | 1013.1 |
| 20260509204530 | 60 | 167 | 1.0 | 4.0 | 0.00 | 0.01 | 0.01 | 69 | 1013.1 |
| 20260509204009 | 60 | 148 | 1.0 | 4.0 | 0.00 | 0.01 | 0.01 | 69 | 1013.1 |
| 20260509203509 | 61 | 157 | 1.0 | 4.0 | 0.00 | 0.01 | 0.01 | 68 | 1013.3 |
| 20260509203016 | 61 | 166 | 1.0 | 3.0 | 0.00 | 0.01 | 0.01 | 69 | 1013.2 |
| 20260509202505 | 61 | 153 | 1.0 | 4.0 | 0.00 | 0.01 | 0.01 | 69 | 1013.1 |
| 20260509202008 | 61 | 164 | 1.0 | 4.0 | 0.00 | 0.01 | 0.01 | 69 | 1013.2 |
| 20260509201519 | 61 | 160 | 1.0 | 3.0 | 0.00 | 0.01 | 0.01 | 70 | 1013.3 |
| 20260509201010 | 61 | 139 | 1.0 | 3.0 | 0.00 | 0.01 | 0.01 | 69 | 1013.4 |
| 20260509200511 | 61 | 168 | 1.0 | 4.0 | 0.00 | 0.01 | 0.01 | 70 | 1013.5 |
| 20260509200024 | 61 | 168 | 2.0 | 4.0 | 0.00 | 0.01 | 0.01 | 68 | 1013.4 |
| 20260509195512 | 61 | 146 | 2.0 | 5.0 | 0.00 | 0.01 | 0.01 | 67 | 1013.4 |
| 20260509195009 | 62 | 176 | 1.0 | 7.0 | 0.00 | 0.01 | 0.01 | 69 | 1013.4 |
| 20260509194530 | 62 | 172 | 2.0 | 6.0 | 0.00 | 0.01 | 0.01 | 68 | 1013.5 |
| 20260509194009 | 62 | 139 | 1.0 | 6.0 | 0.00 | 0.01 | 0.01 | 68 | 1013.5 |
| 20260509193505 | 62 | 176 | 1.0 | 4.0 | 0.00 | 0.01 | 0.01 | 68 | 1013.4 |
| 20260509193024 | 62 | 233 | 2.0 | 4.0 | 0.00 | 0.01 | 0.01 | 68 | 1013.6 |
| 20260509192507 | 62 | 167 | 1.0 | 4.0 | 0.00 | 0.01 | 0.01 | 68 | 1013.6 |
| 20260509192007 | 62 | 172 | 1.0 | 4.0 | 0.00 | 0.01 | 0.01 | 68 | 1013.6 |
| 20260509191525 | 62 | 162 | 1.0 | 4.0 | 0.00 | 0.01 | 0.01 | 69 | 1013.5 |
| 20260509191009 | 62 | 142 | 1.0 | 3.0 | 0.00 | 0.01 | 0.01 | 69 | 1013.5 |
| 20260509190512 | 62 | 116 | 1.0 | 3.0 | 0.00 | 0.01 | 0.01 | 71 | 1013.4 |
| 20260509190004 | 62 | 141 | 1.0 | 3.0 | 0.00 | 0.01 | 0.01 | 70 | 1013.4 |
| 20260509185504 | 62 | 165 | 1.0 | 3.0 | 0.00 | 0.01 | 0.01 | 70 | 1013.5 |
| 20260509185004 | 61 | 155 | 1.0 | 3.0 | 0.00 | 0.01 | 0.01 | 70 | 1013.5 |
| 20260509184517 | 62 | 149 | 2.0 | 3.0 | 0.00 | 0.01 | 0.01 | 70 | 1013.5 |
| 20260509184010 | 62 | 153 | 1.0 | 3.0 | 0.00 | 0.01 | 0.01 | 70 | 1013.6 |
| 20260509183503 | 62 | 153 | 1.0 | 3.0 | 0.00 | 0.01 | 0.01 | 69 | 1013.7 |
| 20260509183008 | 62 | 192 | 1.0 | 3.0 | 0.00 | 0.01 | 0.01 | 69 | 1013.7 |
| 20260509182507 | 63 | 121 | 1.0 | 4.0 | 0.00 | 0.01 | 0.01 | 68 | 1013.8 |
| 20260509182008 | 63 | 187 | 1.0 | 4.0 | 0.00 | 0.01 | 0.01 | 68 | 1013.9 |
| 20260509181514 | 63 | 187 | 1.0 | 4.0 | 0.00 | 0.01 | 0.01 | 69 | 1014.0 |
| 20260509181011 | 63 | 179 | 1.0 | 4.0 | 0.00 | 0.01 | 0.01 | 67 | 1014.2 |
| 20260509180508 | 62 | 199 | 1.0 | 4.0 | 0.00 | 0.01 | 0.01 | 68 | 1014.2 |
| 20260509180020 | 62 | 172 | 1.0 | 4.0 | 0.00 | 0.01 | 0.01 | 67 | 1014.2 |
| 20260509175513 | 62 | 181 | 2.0 | 4.0 | 0.00 | 0.01 | 0.01 | 68 | 1014.2 |
| 20260509175008 | 61 | 309 | 1.0 | 5.0 | 0.00 | 0.01 | 0.01 | 71 | 1014.3 |
| 20260509174503 | 61 | 176 | 1.0 | 5.0 | 0.00 | 0.01 | 0.01 | 69 | 1014.3 |
| 20260509174004 | 60 | 166 | 0.0 | 4.0 | 0.00 | 0.01 | 0.01 | 71 | 1014.4 |
| 20260509173503 | 60 | 153 | 0.0 | 4.0 | 0.00 | 0.01 | 0.01 | 72 | 1014.4 |
| 20260509173008 | 60 | 179 | 2.0 | 4.0 | 0.00 | 0.01 | 0.01 | 70 | 1014.6 |
| 20260509172504 | 60 | 169 | 2.0 | 5.0 | 0.00 | 0.01 | 0.01 | 69 | 1014.6 |
| 20260509172006 | 60 | 153 | 2.0 | 5.0 | 0.00 | 0.01 | 0.01 | 69 | 1014.6 |
| 20260509171513 | 60 | 143 | 2.0 | 5.0 | 0.00 | 0.01 | 0.01 | 69 | 1014.5 |
| 20260509171006 | 61 | 167 | 1.0 | 5.0 | 0.00 | 0.01 | 0.01 | 68 | 1014.5 |
| 20260509170507 | 61 | 164 | 1.0 | 3.0 | 0.00 | 0.01 | 0.01 | 69 | 1014.6 |
| 20260509170023 | 61 | 106 | 0.0 | 2.0 | 0.00 | 0.01 | 0.01 | 66 | 1014.5 |
| 20260509165508 | 61 | 161 | 1.0 | 2.0 | 0.00 | 0.01 | 0.01 | 66 | 1014.5 |
| 20260509165010 | 61 | 169 | 1.0 | 2.0 | 0.00 | 0.01 | 0.01 | 66 | 1014.4 |
| 20260509164521 | 62 | 174 | 1.0 | 3.0 | 0.00 | 0.01 | 0.01 | 65 | 1014.3 |
| 20260509164011 | 62 | 158 | 0.0 | 3.0 | 0.00 | 0.01 | 0.01 | 66 | 1014.4 |
| 20260509163507 | 62 | 172 | 0.0 | 2.0 | 0.00 | 0.01 | 0.01 | 67 | 1014.4 |
| 20260509163003 | 61 | 84 | 1.0 | 3.0 | 0.00 | 0.01 | 0.01 | 67 | 1014.4 |
| 20260509162503 | 61 | 188 | 1.0 | 3.0 | 0.00 | 0.01 | 0.01 | 67 | 1014.3 |
| 20260509162002 | 61 | 153 | 1.0 | 2.0 | 0.00 | 0.01 | 0.01 | 66 | 1014.5 |
| 20260509161511 | 61 | 169 | 1.0 | 3.0 | 0.00 | 0.01 | 0.01 | 66 | 1014.5 |
| 20260509161003 | 62 | 167 | 1.0 | 3.0 | 0.00 | 0.01 | 0.01 | 64 | 1014.6 |
| 20260509160503 | 63 | 169 | 1.0 | 3.0 | 0.00 | 0.01 | 0.01 | 62 | 1014.7 |
| 20260509160014 | 63 | 116 | 0.0 | 3.0 | 0.00 | 0.01 | 0.01 | 63 | 1014.7 |
| 20260509155506 | 63 | 79 | 1.0 | 3.0 | 0.00 | 0.01 | 0.01 | 62 | 1014.6 |
| 20260509155007 | 63 | 108 | 1.0 | 2.0 | 0.00 | 0.01 | 0.01 | 62 | 1014.7 |
| 20260509154518 | 63 | 199 | 1.0 | 2.0 | 0.00 | 0.01 | 0.01 | 62 | 1014.6 |
| 20260509154012 | 63 | 174 | 0.0 | 3.0 | 0.00 | 0.01 | 0.01 | 64 | 1014.7 |
| 20260509153507 | 63 | 192 | 1.0 | 3.0 | 0.00 | 0.01 | 0.01 | 63 | 1014.9 |
| 20260509153031 | 63 | 56 | 1.0 | 3.0 | 0.00 | 0.01 | 0.01 | 64 | 1015.0 |
| 20260509152510 | 63 | 168 | 1.0 | 3.0 | 0.00 | 0.01 | 0.01 | 65 | 1014.9 |
| 20260509152012 | 62 | 75 | 1.0 | 3.0 | 0.00 | 0.01 | 0.01 | 68 | 1015.0 |
| 20260509151507 | 61 | 176 | 1.0 | 2.0 | 0.00 | 0.01 | 0.01 | 67 | 1015.1 |
| 20260509151003 | 60 | 154 | 1.0 | 4.0 | 0.00 | 0.01 | 0.01 | 71 | 1015.1 |
| 20260509150506 | 59 | 165 | 1.0 | 4.0 | 0.00 | 0.01 | 0.01 | 73 | 1015.1 |
| 20260509150012 | 58 | 243 | 1.0 | 5.0 | 0.00 | 0.01 | 0.01 | 73 | 1015.0 |
| 20260509145504 | 58 | 346 | 1.0 | 5.0 | 0.00 | 0.01 | 0.01 | 76 | 1015.0 |
| 20260509145008 | 57 | 299 | 1.0 | 3.0 | 0.00 | 0.01 | 0.01 | 75 | 1015.1 |
| 20260509144519 | 57 | 326 | 0.0 | 3.0 | 0.00 | 0.01 | 0.01 | 76 | 1015.2 |
| 20260509144010 | 56 | 221 | 1.0 | 6.0 | 0.00 | 0.01 | 0.01 | 77 | 1014.9 |
| 20260509143505 | 57 | 48 | 2.0 | 6.0 | 0.00 | 0.01 | 0.01 | 76 | 1014.9 |
| 20260509143020 | 57 | 174 | 1.0 | 5.0 | 0.00 | 0.01 | 0.01 | 76 | 1015.0 |
| 20260509142505 | 56 | 300 | 0.0 | 4.0 | 0.00 | 0.01 | 0.01 | 75 | 1014.9 |
| 20260509142009 | 56 | 354 | 1.0 | 4.0 | 0.00 | 0.01 | 0.01 | 76 | 1014.8 |
| 20260509141526 | 56 | 279 | 1.0 | 3.0 | 0.00 | 0.01 | 0.01 | 78 | 1014.8 |
| 20260509141010 | 55 | 41 | 1.0 | 4.0 | 0.00 | 0.01 | 0.01 | 79 | 1014.8 |
| 20260509140509 | 55 | 17 | 0.0 | 4.0 | 0.00 | 0.01 | 0.01 | 80 | 1014.7 |
| 20260509140013 | 54 | 330 | 0.0 | 4.0 | 0.00 | 0.01 | 0.01 | 82 | 1014.8 |
| 20260509135505 | 54 | 204 | 0.0 | 2.0 | 0.00 | 0.01 | 0.01 | 82 | 1015.0 |
| 20260509135009 | 54 | 226 | 0.0 | 2.0 | 0.00 | 0.01 | 0.01 | 80 | 1015.2 |
| 20260509134515 | 54 | 327 | 0.0 | 2.0 | 0.00 | 0.01 | 0.01 | 81 | 1015.3 |
| 20260509134007 | 54 | 20 | 0.0 | 2.0 | 0.00 | 0.01 | 0.01 | 84 | 1015.4 |
| 20260509133507 | 54 | 1 | 0.0 | 2.0 | 0.00 | 0.01 | 0.01 | 82 | 1015.2 |
| 20260509133020 | 54 | 337 | 0.0 | 5.0 | 0.00 | 0.01 | 0.01 | 84 | 1015.4 |
| 20260509132507 | 53 | 335 | 0.0 | 5.0 | 0.00 | 0.01 | 0.01 | 85 | 1015.4 |
| 20260509132012 | 53 | 257 | 0.0 | 2.0 | 0.00 | 0.01 | 0.01 | 84 | 1015.5 |
| 20260509131524 | 53 | 238 | 0.0 | 2.0 | 0.00 | 0.01 | 0.01 | 86 | 1015.6 |
| 20260509131009 | 53 | 318 | 1.0 | 2.0 | 0.00 | 0.01 | 0.01 | 84 | 1015.6 |
| 20260509130510 | 53 | 345 | 0.0 | 3.0 | 0.00 | 0.01 | 0.01 | 86 | 1015.7 |
| 20260509130035 | 53 | 263 | 0.0 | 3.0 | 0.00 | 0.01 | 0.01 | 85 | 1015.8 |
| 20260509125511 | 53 | 185 | 1.0 | 4.0 | 0.00 | 0.01 | 0.01 | 85 | 1015.6 |
| 20260509125010 | 53 | 266 | 1.0 | 4.0 | 0.00 | 0.01 | 0.01 | 87 | 1015.7 |
| 20260509124514 | 53 | 285 | 1.0 | 6.0 | 0.00 | 0.01 | 0.01 | 89 | 1015.8 |
| 20260509124006 | 52 | 222 | 1.0 | 6.0 | 0.00 | 0.01 | 0.01 | 89 | 1015.5 |
| 20260509123504 | 52 | 287 | 1.0 | 4.0 | 0.00 | 0.01 | 0.01 | 92 | 1015.4 |
| 20260509123018 | 52 | 186 | 0.0 | 3.0 | 0.00 | 0.01 | 0.01 | 94 | 1015.4 |
| 20260509122509 | 51 | 326 | 0.0 | 3.0 | 0.01 | 0.01 | 0.01 | 94 | 1015.5 |
| 20260509122008 | 51 | 117 | 0.0 | 2.0 | 0.01 | 0.01 | 0.01 | 95 | 1015.3 |
| 20260509121525 | 51 | 10 | 0.0 | 2.0 | 0.01 | 0.01 | 0.01 | 96 | 1015.4 |
| 20260509121007 | 50 | 261 | 0.0 | 2.0 | 0.01 | 0.01 | 0.01 | 96 | 1015.5 |
| 20260509120509 | 50 | 269 | 0.0 | 2.0 | 0.01 | 0.01 | 0.01 | 96 | 1015.4 |
| 20260509120024 | 49 | 269 | 0.0 | 2.0 | 0.01 | 0.01 | 0.01 | 95 | 1015.6 |
| 20260509115509 | 49 | 269 | 0.0 | 1.0 | 0.01 | 0.01 | 0.01 | 95 | 1015.7 |
| 20260509115012 | 49 | 269 | 0.0 | 2.0 | 0.01 | 0.01 | 0.01 | 95 | 1015.8 |
| 20260509114527 | 49 | 269 | 0.0 | 2.0 | 0.01 | 0.01 | 0.01 | 95 | 1015.7 |
| 20260509114010 | 49 | 270 | 0.0 | 2.0 | 0.01 | 0.01 | 0.01 | 95 | 1015.4 |
| 20260509113509 | 49 | 270 | 0.0 | 2.0 | 0.01 | 0.01 | 0.01 | 94 | 1015.5 |
| 20260509113012 | 49 | 242 | 0.0 | 2.0 | 0.01 | 0.01 | 0.01 | 95 | 1015.6 |
| 20260509112507 | 49 | 242 | 0.0 | 2.0 | 0.00 | 0.00 | 0.00 | 95 | 1015.5 |
| 20260509112009 | 48 | 243 | 0.0 | 2.0 | 0.00 | 0.00 | 0.00 | 94 | 1015.7 |
| 20260509111518 | 48 | 242 | 0.0 | 2.0 | 0.00 | 0.00 | 0.00 | 94 | 1015.8 |
| 20260509111012 | 48 | 243 | 0.0 | 2.0 | 0.00 | 0.00 | 0.00 | 94 | 1015.8 |
| 20260509110508 | 48 | 223 | 0.0 | 2.0 | 0.00 | 0.00 | 0.00 | 94 | 1015.7 |
| 20260509110020 | 48 | 223 | 0.0 | 0.0 | 0.00 | 0.00 | 0.00 | 94 | 1015.8 |
| 20260509105508 | 48 | 223 | 0.0 | 2.0 | 0.00 | 0.00 | 0.00 | 94 | 1015.9 |
| 20260509105010 | 48 | 223 | 0.0 | 2.0 | 0.00 | 0.00 | 0.00 | 94 | 1016.1 |
| 20260509104526 | 48 | 223 | 0.0 | 2.0 | 0.00 | 0.00 | 0.00 | 94 | 1016.0 |
| 20260509104003 | 48 | 223 | 0.0 | 0.0 | 0.00 | 0.00 | 0.00 | 94 | 1016.1 |
| 20260509103502 | 48 | 223 | 0.0 | 0.0 | 0.00 | 0.00 | 0.00 | 94 | 1015.9 |
| 20260509103012 | 47 | 223 | 0.0 | 0.0 | 0.00 | 0.00 | 0.00 | 94 | 1015.8 |
| 20260509102509 | 47 | 223 | 0.0 | 0.0 | 0.00 | 0.00 | 0.00 | 94 | 1015.6 |
| 20260509102007 | 47 | 223 | 0.0 | 0.0 | 0.00 | 0.00 | 0.00 | 94 | 1015.5 |
| 20260509101523 | 47 | 223 | 0.0 | 0.0 | 0.00 | 0.00 | 0.00 | 94 | 1015.5 |
| 20260509101008 | 47 | 223 | 0.0 | 0.0 | 0.00 | 0.00 | 0.00 | 93 | 1015.4 |
| 20260509100507 | 47 | 223 | 0.0 | 0.0 | 0.00 | 0.00 | 0.00 | 94 | 1015.2 |
| 20260509100004 | 47 | 223 | 0.0 | 0.0 | 0.00 | 0.00 | 0.00 | 94 | 1015.0 |
| 20260509095503 | 47 | 223 | 0.0 | 2.0 | 0.00 | 0.00 | 0.00 | 94 | 1015.0 |
| 20260509095004 | 47 | 223 | 0.0 | 2.0 | 0.00 | 0.00 | 0.00 | 94 | 1014.9 |
| 20260509094503 | 47 | 190 | 0.0 | 0.0 | 0.00 | 0.00 | 0.00 | 93 | 1015.1 |
| 20260509094004 | 47 | 190 | 0.0 | 1.0 | 0.00 | 0.00 | 0.00 | 94 | 1014.9 |
| 20260509093507 | 47 | 190 | 0.0 | 1.0 | 0.00 | 0.00 | 0.00 | 93 | 1014.7 |
| 20260509093006 | 47 | 190 | 0.0 | 2.0 | 0.00 | 0.00 | 0.00 | 93 | 1014.8 |
| 20260509092507 | 47 | 190 | 0.0 | 2.0 | 0.00 | 0.00 | 0.00 | 93 | 1014.8 |
| 20260509092006 | 47 | 190 | 0.0 | 2.0 | 0.00 | 0.00 | 0.00 | 93 | 1014.7 |
| 20260509091512 | 47 | 190 | 0.0 | 0.0 | 0.00 | 0.00 | 0.00 | 93 | 1014.6 |
| 20260509091007 | 47 | 190 | 0.0 | 0.0 | 0.00 | 0.00 | 0.00 | 93 | 1014.4 |
| 20260509090510 | 47 | 190 | 0.0 | 0.0 | 0.00 | 0.00 | 0.00 | 93 | 1014.4 |
| 20260509090032 | 47 | 190 | 0.0 | 0.0 | 0.00 | 0.00 | 0.00 | 93 | 1014.3 |
| 20260509085508 | 47 | 190 | 0.0 | 0.0 | 0.00 | 0.00 | 0.00 | 93 | 1014.2 |
| 20260509085009 | 47 | 190 | 0.0 | 0.0 | 0.00 | 0.00 | 0.00 | 93 | 1014.1 |
| 20260509084521 | 47 | 190 | 0.0 | 0.0 | 0.00 | 0.00 | 0.00 | 93 | 1014.2 |
| 20260509084002 | 47 | 190 | 0.0 | 0.0 | 0.00 | 0.00 | 0.00 | 93 | 1014.1 |
| 20260509083503 | 47 | 190 | 0.0 | 0.0 | 0.00 | 0.00 | 0.00 | 93 | 1014.1 |
| 20260509083010 | 47 | 190 | 0.0 | 0.0 | 0.00 | 0.00 | 0.00 | 93 | 1014.1 |
| 20260509082503 | 47 | 190 | 0.0 | 0.0 | 0.00 | 0.00 | 0.00 | 94 | 1014.2 |
| 20260509082004 | 47 | 190 | 0.0 | 0.0 | 0.00 | 0.00 | 0.00 | 94 | 1014.3 |
| 20260509081512 | 47 | 190 | 0.0 | 0.0 | 0.00 | 0.00 | 0.00 | 94 | 1014.4 |
| 20260509081005 | 47 | 190 | 0.0 | 0.0 | 0.00 | 0.00 | 0.00 | 93 | 1014.4 |
| 20260509080510 | 47 | 190 | 0.0 | 0.0 | 0.00 | 0.00 | 0.00 | 93 | 1014.4 |
| 20260509080015 | 47 | 190 | 0.0 | 0.0 | 0.00 | 0.00 | 0.00 | 94 | 1014.3 |
| 20260509075507 | 47 | 190 | 0.0 | 0.0 | 0.00 | 0.00 | 0.00 | 94 | 1014.4 |
| 20260509075009 | 47 | 190 | 0.0 | 0.0 | 0.00 | 0.00 | 0.00 | 94 | 1014.5 |
| 20260509074520 | 47 | 190 | 0.0 | 0.0 | 0.00 | 0.00 | 0.00 | 94 | 1014.5 |
| 20260509074011 | 47 | 190 | 0.0 | 0.0 | 0.00 | 0.00 | 0.00 | 94 | 1014.4 |
| 20260509073508 | 47 | 190 | 0.0 | 0.0 | 0.00 | 0.00 | 0.00 | 94 | 1014.7 |
| 20260509073029 | 47 | 190 | 0.0 | 0.0 | 0.00 | 0.00 | 0.00 | 94 | 1014.7 |
| 20260509072505 | 47 | 190 | 0.0 | 0.0 | 0.00 | 0.00 | 0.00 | 94 | 1014.6 |
| 20260509072005 | 46 | 190 | 0.0 | 0.0 | 0.00 | 0.00 | 0.00 | 94 | 1014.8 |
| 20260509071508 | 46 | 190 | 0.0 | 0.0 | 0.00 | 0.00 | 0.00 | 94 | 1014.8 |
| 20260509071005 | 46 | 190 | 0.0 | 0.0 | 0.00 | 0.00 | 0.00 | 94 | 1014.8 |
| 20260509070505 | 46 | 190 | 0.0 | 0.0 | 0.00 | 0.00 | 0.00 | 94 | 1014.8 |
| 20260509070011 | 46 | 190 | 0.0 | 0.0 | 0.00 | 0.00 | 0.00 | 94 | 1014.8 |
| 20260509065505 | 46 | 190 | 0.0 | 0.0 | 0.00 | 0.00 | 0.00 | 94 | 1014.9 |
| 20260509065006 | 46 | 190 | 0.0 | 0.0 | 0.00 | 0.00 | 0.00 | 94 | 1014.9 |
| 20260509064516 | 45 | 190 | 0.0 | 0.0 | 0.00 | 0.00 | 0.00 | 94 | 1014.8 |
| 20260509064010 | 45 | 190 | 0.0 | 0.0 | 0.00 | 0.00 | 0.00 | 94 | 1014.7 |
| 20260509063511 | 45 | 190 | 0.0 | 0.0 | 0.00 | 0.00 | 0.00 | 94 | 1014.7 |
| 20260509063023 | 45 | 190 | 0.0 | 0.0 | 0.00 | 0.00 | 0.00 | 93 | 1014.8 |
| 20260509062510 | 45 | 190 | 0.0 | 0.0 | 0.00 | 0.00 | 0.00 | 93 | 1014.9 |
| 20260509062010 | 45 | 190 | 0.0 | 0.0 | 0.00 | 0.00 | 0.00 | 93 | 1014.9 |
| 20260509061525 | 45 | 190 | 0.0 | 0.0 | 0.00 | 0.00 | 0.00 | 93 | 1014.8 |
| 20260509061004 | 45 | 190 | 0.0 | 0.0 | 0.00 | 0.00 | 0.00 | 93 | 1014.7 |
| 20260509060504 | 44 | 190 | 0.0 | 0.0 | 0.00 | 0.00 | 0.00 | 93 | 1014.8 |
| 20260509060008 | 44 | 190 | 0.0 | 0.0 | 0.00 | 0.00 | 0.00 | 93 | 1014.7 |
| 20260509055505 | 44 | 190 | 0.0 | 0.0 | 0.00 | 0.00 | 0.00 | 92 | 1014.7 |
| 20260509055004 | 44 | 190 | 0.0 | 0.0 | 0.00 | 0.00 | 0.00 | 92 | 1014.7 |
| 20260509054514 | 44 | 190 | 0.0 | 0.0 | 0.00 | 0.00 | 0.00 | 92 | 1014.7 |
| 20260509054010 | 44 | 190 | 0.0 | 0.0 | 0.00 | 0.00 | 0.00 | 91 | 1014.8 |
| 20260509053506 | 44 | 190 | 0.0 | 0.0 | 0.00 | 0.00 | 0.00 | 91 | 1014.7 |
| 20260509053022 | 44 | 190 | 0.0 | 0.0 | 0.00 | 0.00 | 0.00 | 91 | 1014.7 |
| 20260509052507 | 44 | 190 | 0.0 | 0.0 | 0.00 | 0.00 | 0.00 | 90 | 1014.9 |
| 20260509052008 | 44 | 190 | 0.0 | 0.0 | 0.00 | 0.00 | 0.00 | 91 | 1014.8 |
| 20260509051521 | 45 | 190 | 0.0 | 2.0 | 0.00 | 0.00 | 0.00 | 91 | 1014.6 |
| 20260509051009 | 45 | 190 | 0.0 | 2.0 | 0.00 | 0.00 | 0.00 | 90 | 1014.6 |
| 20260509050511 | 45 | 190 | 0.0 | 0.0 | 0.00 | 0.00 | 0.00 | 89 | 1014.6 |
| 20260509050026 | 45 | 190 | 0.0 | 0.0 | 0.00 | 0.00 | 0.00 | 89 | 1014.7 |
| 20260509045508 | 45 | 190 | 0.0 | 0.0 | 0.00 | 0.00 | 0.00 | 89 | 1014.7 |
| 20260509045004 | 45 | 190 | 0.0 | 0.0 | 0.00 | 0.00 | 0.00 | 90 | 1014.5 |
| 20260509044510 | 46 | 190 | 0.0 | 0.0 | 0.00 | 0.00 | 0.00 | 90 | 1014.4 |
| 20260509044009 | 46 | 190 | 0.0 | 0.0 | 0.00 | 0.00 | 0.00 | 90 | 1014.3 |
| 20260509043504 | 46 | 190 | 0.0 | 0.0 | 0.00 | 0.00 | 0.00 | 90 | 1014.3 |
| 20260509043016 | 46 | 190 | 0.0 | 0.0 | 0.00 | 0.00 | 0.00 | 89 | 1014.4 |
| 20260509042507 | 46 | 190 | 0.0 | 0.0 | 0.00 | 0.00 | 0.00 | 89 | 1014.4 |
| 20260509042010 | 46 | 190 | 0.0 | 0.0 | 0.00 | 0.00 | 0.00 | 88 | 1014.3 |
| 20260509041520 | 46 | 190 | 0.0 | 0.0 | 0.00 | 0.00 | 0.00 | 88 | 1014.2 |
| 20260509041011 | 47 | 190 | 0.0 | 0.0 | 0.00 | 0.00 | 0.00 | 88 | 1014.3 |
| 20260509040510 | 47 | 190 | 0.0 | 2.0 | 0.00 | 0.00 | 0.00 | 87 | 1014.3 |
| 20260509040029 | 47 | 190 | 0.0 | 2.0 | 0.00 | 0.00 | 0.00 | 87 | 1014.2 |
| 20260509035509 | 47 | 190 | 0.0 | 2.0 | 0.00 | 0.00 | 0.00 | 87 | 1014.2 |
| 20260509035010 | 48 | 190 | 0.0 | 2.0 | 0.00 | 0.00 | 0.00 | 86 | 1014.2 |
| 20260509034535 | 48 | 190 | 0.0 | 0.0 | 0.00 | 0.00 | 0.00 | 85 | 1014.1 |
| 20260509034012 | 48 | 190 | 0.0 | 2.0 | 0.00 | 0.00 | 0.00 | 85 | 1014.1 |
| 20260509033503 | 48 | 190 | 0.0 | 2.0 | 0.00 | 0.00 | 0.00 | 85 | 1014.1 |
| 20260509033010 | 49 | 191 | 0.0 | 2.0 | 0.00 | 0.00 | 0.00 | 87 | 1014.1 |
| 20260509032507 | 48 | 189 | 0.0 | 2.0 | 0.00 | 0.00 | 0.00 | 87 | 1014.2 |
| 20260509032008 | 48 | 213 | 0.0 | 2.0 | 0.00 | 0.00 | 0.00 | 86 | 1014.2 |
| 20260509031520 | 48 | 213 | 0.0 | 2.0 | 0.00 | 0.00 | 0.00 | 85 | 1014.1 |
| 20260509031008 | 48 | 228 | 0.0 | 2.0 | 0.00 | 0.00 | 0.00 | 81 | 1014.2 |
| 20260509030514 | 48 | 243 | 0.0 | 2.0 | 0.00 | 0.00 | 0.00 | 80 | 1014.2 |
| 20260509030041 | 49 | 193 | 0.0 | 2.0 | 0.00 | 0.00 | 0.00 | 79 | 1014.1 |
| 20260509025507 | 49 | 193 | 0.0 | 2.0 | 0.00 | 0.00 | 0.00 | 78 | 1014.0 |
| 20260509025009 | 49 | 193 | 0.0 | 2.0 | 0.00 | 0.00 | 0.00 | 78 | 1014.0 |
| 20260509024524 | 49 | 193 | 0.0 | 2.0 | 0.00 | 0.00 | 0.00 | 79 | 1013.9 |
| 20260509024009 | 49 | 193 | 0.0 | 2.0 | 0.00 | 0.00 | 0.00 | 80 | 1013.9 |
| 20260509023511 | 49 | 193 | 0.0 | 2.0 | 0.00 | 0.00 | 0.00 | 82 | 1013.8 |
| 20260509023033 | 49 | 191 | 0.0 | 2.0 | 0.00 | 0.00 | 0.00 | 83 | 1013.8 |
| 20260509022509 | 49 | 195 | 0.0 | 2.0 | 0.00 | 0.00 | 0.00 | 83 | 1013.8 |
| 20260509022007 | 49 | 195 | 0.0 | 2.0 | 0.00 | 0.00 | 0.00 | 83 | 1013.7 |
| 20260509021514 | 49 | 195 | 0.0 | 2.0 | 0.00 | 0.00 | 0.00 | 84 | 1013.6 |
| 20260509021007 | 49 | 195 | 0.0 | 2.0 | 0.00 | 0.00 | 0.00 | 84 | 1013.5 |
| 20260509020507 | 48 | 195 | 0.0 | 2.0 | 0.00 | 0.00 | 0.00 | 85 | 1013.4 |
| 20260509020018 | 48 | 195 | 0.0 | 2.0 | 0.00 | 0.00 | 0.00 | 86 | 1013.4 |
| 20260509015507 | 48 | 195 | 0.0 | 2.0 | 0.00 | 0.00 | 0.00 | 86 | 1013.3 |
| 20260509015011 | 48 | 172 | 0.0 | 2.0 | 0.00 | 0.00 | 0.00 | 84 | 1013.3 |
| 20260509014522 | 48 | 172 | 0.0 | 0.0 | 0.00 | 0.00 | 0.00 | 84 | 1013.3 |
| 20260509014008 | 48 | 172 | 0.0 | 0.0 | 0.00 | 0.00 | 0.00 | 83 | 1013.3 |
| 20260509013503 | 48 | 172 | 0.0 | 2.0 | 0.00 | 0.00 | 0.00 | 82 | 1013.2 |
| 20260509013008 | 49 | 172 | 0.0 | 2.0 | 0.00 | 0.00 | 0.00 | 82 | 1013.3 |
| 20260509012507 | 49 | 172 | 0.0 | 2.0 | 0.00 | 0.00 | 0.00 | 81 | 1013.1 |
| 20260509012007 | 49 | 172 | 0.0 | 2.0 | 0.00 | 0.00 | 0.00 | 81 | 1013.1 |
| 20260509011511 | 49 | 172 | 0.0 | 2.0 | 0.00 | 0.00 | 0.00 | 81 | 1013.0 |
| 20260509011004 | 49 | 178 | 0.0 | 2.0 | 0.00 | 0.00 | 0.00 | 80 | 1012.8 |
| 20260509010506 | 49 | 184 | 0.0 | 2.0 | 0.00 | 0.00 | 0.00 | 79 | 1012.7 |
| 20260509010010 | 49 | 184 | 0.0 | 2.0 | 0.00 | 0.00 | 0.00 | 79 | 1012.7 |
| 20260509005504 | 49 | 184 | 0.0 | 2.0 | 0.00 | 0.00 | 0.00 | 79 | 1012.5 |
| 20260509005003 | 49 | 184 | 0.0 | 2.0 | 0.00 | 0.00 | 0.00 | 78 | 1012.5 |
| 20260509004506 | 49 | 184 | 0.0 | 2.0 | 0.00 | 0.00 | 0.00 | 77 | 1012.5 |
| 20260509004004 | 49 | 184 | 0.0 | 2.0 | 0.00 | 0.00 | 0.00 | 77 | 1012.3 |
| 20260509003504 | 49 | 184 | 0.0 | 2.0 | 0.00 | 0.00 | 0.00 | 76 | 1012.3 |
| 20260509003004 | 49 | 189 | 0.0 | 2.0 | 0.00 | 0.00 | 0.00 | 76 | 1012.1 |
| 20260509002505 | 50 | 203 | 0.0 | 2.0 | 0.00 | 0.00 | 0.00 | 75 | 1012.1 |
| 20260509002005 | 50 | 203 | 0.0 | 2.0 | 0.00 | 0.00 | 0.00 | 75 | 1011.9 |
| 20260509001513 | 50 | 204 | 0.0 | 2.0 | 0.00 | 0.00 | 0.00 | 74 | 1011.8 |
| 20260509001004 | 50 | 204 | 0.0 | 2.0 | 0.00 | 0.00 | 0.00 | 74 | 1011.7 |
| 20260509000507 | 51 | 205 | 0.0 | 2.0 | 0.00 | 0.00 | 0.00 | 74 | 1011.6 |
| 20260509000015 | 51 | 211 | 0.0 | 2.0 | 0.00 | 0.00 | 0.00 | 75 | 1011.4 |
| 20260508235507 | 51 | 211 | 0.0 | 2.0 | 0.00 | 0.00 | 0.00 | 74 | 1011.4 |
| 20260508235008 | 51 | 214 | 0.0 | 2.0 | 0.00 | 0.00 | 0.00 | 74 | 1011.2 |
| 20260508234515 | 51 | 214 | 0.0 | 2.0 | 0.00 | 0.00 | 0.00 | 74 | 1011.1 |
| 20260508234005 | 51 | 214 | 1.0 | 2.0 | 0.00 | 0.00 | 0.00 | 74 | 1011.1 |
| 20260508233510 | 52 | 203 | 0.0 | 2.0 | 0.00 | 0.00 | 0.00 | 73 | 1010.9 |
| 20260508233003 | 52 | 204 | 0.0 | 2.0 | 0.00 | 0.00 | 0.00 | 72 | 1010.9 |
| 20260508232503 | 52 | 207 | 0.0 | 2.0 | 0.00 | 0.00 | 0.00 | 72 | 1010.8 |
| 20260508232003 | 52 | 206 | 0.0 | 2.0 | 0.00 | 0.00 | 0.00 | 71 | 1010.8 |
| 20260508231509 | 52 | 172 | 0.0 | 2.0 | 0.00 | 0.00 | 0.00 | 71 | 1010.8 |
| 20260508231004 | 52 | 214 | 0.0 | 2.0 | 0.00 | 0.00 | 0.00 | 69 | 1010.7 |
| 20260508230503 | 52 | 185 | 0.0 | 2.0 | 0.00 | 0.00 | 0.00 | 69 | 1010.6 |
| 20260508230011 | 52 | 196 | 0.0 | 3.0 | 0.00 | 0.00 | 0.00 | 68 | 1010.6 |
| 20260508225508 | 53 | 180 | 1.0 | 3.0 | 0.00 | 0.00 | 0.00 | 68 | 1010.6 |
| 20260508225008 | 53 | 214 | 1.0 | 3.0 | 0.00 | 0.00 | 0.00 | 69 | 1010.6 |
| 20260508224517 | 53 | 173 | 0.0 | 2.0 | 0.00 | 0.00 | 0.00 | 69 | 1010.6 |
| 20260508224007 | 53 | 175 | 1.0 | 2.0 | 0.00 | 0.00 | 0.00 | 68 | 1010.6 |
| 20260508223507 | 53 | 163 | 1.0 | 3.0 | 0.00 | 0.00 | 0.00 | 67 | 1010.6 |
| 20260508223038 | 54 | 176 | 1.0 | 4.0 | 0.00 | 0.00 | 0.00 | 68 | 1010.6 |
| 20260508222508 | 54 | 211 | 1.0 | 4.0 | 0.00 | 0.00 | 0.00 | 69 | 1010.4 |
| 20260508222012 | 54 | 226 | 1.0 | 6.0 | 0.00 | 0.00 | 0.00 | 69 | 1010.4 |
| 20260508221503 | 54 | 177 | 1.0 | 6.0 | 0.00 | 0.00 | 0.00 | 67 | 1010.4 |
| 20260508221004 | 55 | 188 | 2.0 | 4.0 | 0.00 | 0.00 | 0.00 | 65 | 1010.4 |
| 20260508220504 | 55 | 155 | 1.0 | 2.0 | 0.00 | 0.00 | 0.00 | 64 | 1010.3 |
| 20260508220010 | 55 | 161 | 1.0 | 2.0 | 0.00 | 0.00 | 0.00 | 63 | 1010.4 |
| 20260508215511 | 55 | 148 | 1.0 | 2.0 | 0.00 | 0.00 | 0.00 | 59 | 1010.4 |
| 20260508215005 | 55 | 182 | 1.0 | 4.0 | 0.00 | 0.00 | 0.00 | 57 | 1010.4 |
| 20260508214512 | 55 | 181 | 1.0 | 5.0 | 0.00 | 0.00 | 0.00 | 59 | 1010.4 |
| 20260508214008 | 55 | 187 | 1.0 | 5.0 | 0.00 | 0.00 | 0.00 | 60 | 1010.4 |
| 20260508213506 | 55 | 186 | 2.0 | 3.0 | 0.00 | 0.00 | 0.00 | 58 | 1010.2 |
| 20260508213023 | 55 | 155 | 1.0 | 3.0 | 0.00 | 0.00 | 0.00 | 59 | 1010.1 |
| 20260508212508 | 55 | 158 | 1.0 | 3.0 | 0.00 | 0.00 | 0.00 | 58 | 1010.2 |
| 20260508212009 | 55 | 179 | 2.0 | 3.0 | 0.00 | 0.00 | 0.00 | 59 | 1010.2 |
| 20260508211519 | 55 | 167 | 0.0 | 4.0 | 0.00 | 0.00 | 0.00 | 62 | 1010.1 |
| 20260508211008 | 54 | 209 | 2.0 | 4.0 | 0.00 | 0.00 | 0.00 | 65 | 1010.2 |
| 20260508210510 | 53 | 189 | 2.0 | 4.0 | 0.00 | 0.00 | 0.00 | 71 | 1010.1 |
| 20260508210008 | 52 | 65 | 0.0 | 2.0 | 0.00 | 0.00 | 0.00 | 79 | 1010.0 |
| 20260508205505 | 52 | 12 | 0.0 | 3.0 | 0.00 | 0.00 | 0.00 | 79 | 1009.9 |